{"data":{"norad_id":69696,"intl_designator":"2026-145V","name":"STARLINK-37959","alt_names":[],"object_type":"PAYLOAD","status":"ACTIVE","operator":null,"country":"US","launch_date":"2026-06-25","launch_site_code":"AFWTR","launch_vehicle":null,"mission":null,"orbit_class":"UNKNOWN","rcs_meters":null,"size_class":null,"mass_kg":null,"dimensions":null,"purposes":["comms"],"wikipedia_slug":null,"has_3d_model":false,"image_url":null,"decayed_at":null,"tle_current":{"epoch":"2026-09-19T08:56:49.682400Z","epoch_age_seconds":119062,"freshness":"FRESH","line1":"1 69696U 26145V   26262.37279725  .00008452  00000+0  26379-3 0  9992","line2":"2 69696  97.2860 109.1037 0002101  76.0517 284.0960 15.33447289 13370","mean_motion":15.33447289,"eccentricity":0.0002101,"inclination_deg":97.286,"raan_deg":109.1037,"arg_perigee_deg":76.0517,"mean_anomaly_deg":284.096,"bstar":0.00026379,"rev_number":1337,"period_min":93.90606448162,"perigee_km":464.09850825927,"apogee_km":466.97421980684,"semimajor_km":6843.6733640331,"source":"CELESTRAK","updated_at":"2026-09-20T09:00:44.256114Z"}}}